KRAUCHNWS Weather Reports


time (UTC)temp
C
wind
direction
speed
KPH
gust
KPH
rain 1hr
cm
rain 24hr
cm
rain mn
cm
humidity
%
barometer
mb
20260506090211 13 220 4.8 0.0 0.00 0.00 0.00 75 1005.1
20260506083211 12 158 6.4 0.0 0.00 0.00 0.00 86 1005.0
20260506080212 11 153 3.2 0.0 0.00 0.00 0.00 89 1005.1
20260506073211 10 166 4.8 0.0 0.00 0.00 0.00 94 1005.6
20260506070212 10 175 4.8 0.0 0.00 0.00 0.00 97 1005.6
20260506060210 8 273 3.2 0.0 0.00 0.00 0.00 97 1005.3
20260506050211 7 268 1.6 0.0 0.00 0.00 0.00 96 1005.6
20260506043211 7 307 4.8 0.0 0.00 0.00 0.00 96 1005.8
20260506040211 7 161 0.0 0.0 0.00 0.00 0.00 95 1006.1
20260506033211 8 148 3.2 0.0 0.00 0.00 0.00 95 1006.1
20260506030212 8 330 1.6 0.0 0.00 0.00 0.00 94 1006.6
20260506023211 8 196 11.3 0.0 0.00 0.00 0.00 95 1006.7
20260506020212 9 163 11.3 0.0 0.00 0.00 0.00 94 1006.8
20260506013211 10 190 9.7 0.0 0.00 0.00 0.00 94 1007.0
20260506010213 10 190 9.7 0.0 0.00 0.00 0.00 94 1007.3
20260506003209 9 171 6.4 0.0 0.00 0.00 0.00 94 1007.3
20260506000211 10 153 6.4 0.0 0.00 0.00 0.00 93 1007.4
20260505233209 10 238 11.3 0.0 0.00 0.00 0.00 93 1007.6
20260505230209 10 172 14.5 0.0 0.00 0.00 0.00 93 1007.6
20260505223210 9 186 9.7 0.0 0.00 0.00 0.00 93 1007.8
20260505220209 10 239 12.9 0.0 0.00 0.00 0.00 92 1007.8
20260505213211 10 240 14.5 0.0 0.00 0.00 0.05 90 1008.0
20260505210215 10 207 24.1 0.0 0.00 0.00 0.05 89 1008.0
20260505203209 11 273 24.1 0.0 0.00 0.00 0.05 88 1007.6
20260505200210 11 193 24.1 0.0 0.00 0.00 0.05 87 1007.6
20260505193209 11 249 22.5 0.0 0.00 0.00 0.05 86 1007.4
20260505190215 12 165 25.7 0.0 0.00 0.00 0.05 87 1007.0
20260505183212 12 214 16.1 0.0 0.00 0.00 0.05 84 1006.6
20260505180211 13 286 35.4 0.0 0.00 0.00 0.05 79 1006.4
20260505173210 15 245 24.1 0.0 0.00 0.00 0.05 75 1006.1
20260505170210 15 253 19.3 0.0 0.00 0.00 0.05 73 1005.8
20260505163211 15 240 17.7 0.0 0.00 0.00 0.05 70 1006.0
20260505153210 16 182 8.0 0.0 0.00 0.00 0.05 72 1005.9
20260505150216 15 254 6.4 0.0 0.00 0.00 0.05 76 1005.8
20260505140210 14 355 6.4 0.0 0.00 0.00 0.05 78 1005.9
20260505130210 13 326 11.3 0.0 0.00 0.00 0.05 85 1006.2
20260505123210 13 282 6.4 0.0 0.00 0.00 0.05 90 1006.7
20260505120210 13 238 4.8 0.0 0.00 0.00 0.03 86 1006.9
20260505113210 14 231 14.5 0.0 0.00 0.00 0.00 78 1006.9
20260505110211 15 211 8.0 0.0 0.00 0.00 0.00 74 1006.3
20260505100212 14 274 16.1 0.0 0.00 0.00 0.00 74 1006.5
20260505093212 14 261 12.9 0.0 0.00 0.00 0.00 73 1006.7